sat.trackr.live / text

‹ back to catalog

STARLINK-34114

NORAD 63905 · 2025-095R

PAYLOAD ACTIVE UNKNOWN

§ Identity

Operator
Country
US
Launch date
2025-05-10
Launch site
AFETR
Launch vehicle
Mass (kg)
RCS (m²)

Purposes: comms

External: N2YO · Heavens-Above · Gunter

§ Orbital elements

Epoch: 2026-09-20T00:27:02.137536Z

Period
94.27 min
Inclination
43.0009°
Eccentricity
0.0000792
Mean motion
15.27595779 rev/d
Perigee alt
482.5 km
Apogee alt
483.5 km
Semi-major
6,861.1 km
B*
6.0364e-4
RAAN
159.1208°
Arg perigee
269.5316°
Mean anomaly
90.5445°
Rev number
7,749

§ Raw data

STARLINK-341141 63905U 25095R   26263.01877474  .00016394  00000+0  60364-3 0  99952 63905  43.0009 159.1208 0000792 269.5316  90.5445 15.27595779 77498

JSON: /api/v1/satellites/63905 · /tle

For live sub-satellite position, see the globe view (requires WebGL).

§ Visibility from observer

Set your observer location to see the next 7 days of passes ≥ 10°. The values pass through the URL so the page stays shareable.

No JS? Fill the form by hand. The geolocation button needs JavaScript.